When you browse on this site, cookies collect data to enhance your experience and personalize the content and advertising you see.
Visit our Privacy Policy to learn more. By continuing to use the site, you agree to this use of cookies and data.
  • In Deutschland
  • Länderverzeichnis
  • Für 7 Tage
  • Wassertemperatur
  • Satellitenkarten
  • Wetterkarte
  • Widgets
  • user-avatar
    Anmelden

    Stündliche Wetter Retschytsa

    Heute, 22 März, Freitag

    Zeit Temperatur Niederschläge Wind Luftdruck Luftfeuchtigkeit
    00:00 +3°C° 0 mm 3 m/S 757 mmHg 87%
    01:00 +3°C° 0 mm 3 m/S 756 mmHg 88%
    02:00 +4°C° 0 mm 2 m/S 755 mmHg 89%
    03:00 +4°C° 0.7 mm 3 m/S 755 mmHg 90%
    04:00 +4°C° 0.7 mm 4 m/S 754 mmHg 90%
    05:00 +3°C° 0.7 mm 5 m/S 753 mmHg 90%
    06:00 +5°C° 0.2 mm 5 m/S 753 mmHg 89%
    07:00 +5°C° 0.2 mm 6 m/S 753 mmHg 89%
    08:00 +7°C° 0 mm 6 m/S 752 mmHg 88%
    09:00 +7°C° 0.1 mm 6 m/S 752 mmHg 82%
    10:00 +8°C° 0.1 mm 7 m/S 752 mmHg 76%
    11:00 +8°C° 0.1 mm 7 m/S 752 mmHg 70%
    12:00 +7°C° 0 mm 8 m/S 753 mmHg 60%
    13:00 +8°C° 0 mm 9 m/S 753 mmHg 49%
    14:00 +8°C° 0 mm 9 m/S 752 mmHg 37%
    15:00 +7°C° 0 mm 8 m/S 753 mmHg 38%
    16:00 +8°C° 0 mm 7 m/S 753 mmHg 38%
    17:00 +6°C° 0 mm 7 m/S 754 mmHg 39%
    18:00 +5°C° 0 mm 6 m/S 754 mmHg 43%
    19:00 +3°C° 0 mm 6 m/S 755 mmHg 47%
    20:00 +2°C° 0 mm 5 m/S 755 mmHg 50%
    21:00 +2°C° 0 mm 5 m/S 755 mmHg 52%
    22:00 +1°C° 0 mm 5 m/S 755 mmHg 53%
    23:00 +1°C° 0 mm 5 m/S 755 mmHg 55%

    Morgen, 23 März, Samstag

    Zeit Temperatur Niederschläge Wind Luftdruck Luftfeuchtigkeit
    00:00 0°C° 0 mm 5 m/S 756 mmHg 57%
    01:00 -1°C° 0 mm 5 m/S 756 mmHg 60%
    02:00 -1°C° 0 mm 5 m/S 756 mmHg 63%
    03:00 -1°C° 0 mm 5 m/S 756 mmHg 65%
    04:00 -2°C° 0 mm 5 m/S 756 mmHg 67%
    05:00 -2°C° 0 mm 5 m/S 756 mmHg 70%
    06:00 -2°C° 0 mm 5 m/S 756 mmHg 69%
    07:00 -2°C° 0 mm 6 m/S 757 mmHg 69%
    08:00 -2°C° 0 mm 6 m/S 757 mmHg 68%
    09:00 -1°C° 0 mm 6 m/S 757 mmHg 65%
    10:00 +1°C° 0 mm 6 m/S 757 mmHg 61%
    11:00 +3°C° 0 mm 5 m/S 757 mmHg 58%
    12:00 +3°C° 0 mm 5 m/S 757 mmHg 57%
    13:00 +5°C° 0 mm 5 m/S 757 mmHg 56%
    14:00 +5°C° 0 mm 4 m/S 757 mmHg 55%
    15:00 +5°C° 0 mm 4 m/S 756 mmHg 57%
    16:00 +5°C° 0 mm 3 m/S 756 mmHg 58%
    17:00 +5°C° 0 mm 3 m/S 756 mmHg 59%
    18:00 +5°C° 0 mm 2 m/S 756 mmHg 64%
    19:00 +4°C° 0 mm 1 m/S 756 mmHg 70%
    20:00 +3°C° 0 mm 1 m/S 757 mmHg 75%
    21:00 +3°C° 0 mm 1 m/S 756 mmHg 77%
    22:00 +3°C° 0 mm 1 m/S 756 mmHg 78%
    23:00 +2°C° 0 mm 1 m/S 756 mmHg 79%

    übermorgen, 24 März, Sonntag

    Zeit Temperatur Niederschläge Wind Luftdruck Luftfeuchtigkeit
    00:00 +2°C° 0 mm 1 m/S 756 mmHg 80%
    01:00 +1°C° 0 mm 2 m/S 755 mmHg 81%
    02:00 +1°C° 0 mm 2 m/S 755 mmHg 82%
    03:00 +1°C° 0 mm 2 m/S 754 mmHg 79%
    04:00 +1°C° 0 mm 3 m/S 754 mmHg 75%
    05:00 +1°C° 0 mm 3 m/S 753 mmHg 72%
    06:00 +1°C° 0.4 mm 3 m/S 753 mmHg 71%
    07:00 +2°C° 0.4 mm 3 m/S 753 mmHg 70%
    08:00 +2°C° 0.4 mm 3 m/S 752 mmHg 69%
    09:00 +3°C° 0 mm 3 m/S 752 mmHg 70%
    10:00 +4°C° 0 mm 3 m/S 752 mmHg 71%
    11:00 +5°C° 0 mm 3 m/S 752 mmHg 71%
    12:00 +6°C° 0 mm 4 m/S 752 mmHg 63%
    13:00 +7°C° 0 mm 4 m/S 752 mmHg 55%
    14:00 +9°C° 0 mm 5 m/S 751 mmHg 47%
    15:00 +8°C° 0 mm 4 m/S 751 mmHg 50%
    16:00 +8°C° 0 mm 3 m/S 751 mmHg 53%
    17:00 +8°C° 0 mm 2 m/S 751 mmHg 55%
    18:00 +7°C° 0 mm 2 m/S 751 mmHg 59%
    19:00 +6°C° 0 mm 2 m/S 751 mmHg 62%
    20:00 +5°C° 0 mm 2 m/S 751 mmHg 65%
    21:00 +4°C° 0 mm 2 m/S 751 mmHg 66%
    22:00 +4°C° 0 mm 2 m/S 751 mmHg 67%
    23:00 +4°C° 0 mm 1 m/S 751 mmHg 68%

    25 März, Montag

    Zeit Temperatur Niederschläge Wind Luftdruck Luftfeuchtigkeit
    00:00 +4°C° 0 mm 1 m/S 751 mmHg 69%
    01:00 +4°C° 0 mm 1 m/S 750 mmHg 70%
    02:00 +3°C° 0 mm 1 m/S 750 mmHg 72%
    03:00 +3°C° 0 mm 1 m/S 750 mmHg 73%
    04:00 +2°C° 0 mm 1 m/S 750 mmHg 74%
    05:00 +2°C° 0 mm 1 m/S 749 mmHg 76%
    06:00 +3°C° 0 mm 1 m/S 749 mmHg 73%
    07:00 +2°C° 0 mm 2 m/S 749 mmHg 69%
    08:00 +3°C° 0 mm 2 m/S 749 mmHg 66%
    09:00 +4°C° 0 mm 2 m/S 749 mmHg 60%
    10:00 +5°C° 0 mm 3 m/S 748 mmHg 53%
    11:00 +7°C° 0 mm 3 m/S 748 mmHg 47%
    12:00 +7°C° 0 mm 3 m/S 748 mmHg 43%
    13:00 +8°C° 0 mm 3 m/S 747 mmHg 39%
    14:00 +8°C° 0 mm 3 m/S 747 mmHg 36%
    15:00 +8°C° 0 mm 3 m/S 747 mmHg 38%
    16:00 +8°C° 0 mm 3 m/S 747 mmHg 40%
    17:00 +7°C° 0 mm 2 m/S 746 mmHg 42%
    18:00 +6°C° 0 mm 2 m/S 746 mmHg 47%
    19:00 +5°C° 0 mm 2 m/S 747 mmHg 52%
    20:00 +4°C° 0 mm 1 m/S 747 mmHg 56%
    21:00 +4°C° 0 mm 1 m/S 747 mmHg 59%
    22:00 +4°C° 0 mm 1 m/S 747 mmHg 62%
    23:00 +3°C° 0 mm 1 m/S 747 mmHg 64%

    26 März, Dienstag

    Zeit Temperatur Niederschläge Wind Luftdruck Luftfeuchtigkeit
    00:00 +3°C° 0 mm 1 m/S 747 mmHg 67%
    01:00 +3°C° 0 mm 1 m/S 747 mmHg 70%
    02:00 +3°C° 0 mm 1 m/S 748 mmHg 73%
    03:00 +2°C° 0 mm 1 m/S 748 mmHg 76%
    04:00 +2°C° 0 mm 1 m/S 748 mmHg 79%
    05:00 +1°C° 0 mm 1 m/S 748 mmHg 82%
    06:00 +2°C° 0 mm 1 m/S 748 mmHg 78%
    07:00 +3°C° 0 mm 1 m/S 749 mmHg 74%
    08:00 +3°C° 0 mm 2 m/S 749 mmHg 71%
    09:00 +5°C° 0 mm 2 m/S 749 mmHg 64%
    10:00 +5°C° 0 mm 3 m/S 749 mmHg 58%
    11:00 +8°C° 0 mm 3 m/S 749 mmHg 52%
    12:00 +7°C° 0.1 mm 4 m/S 749 mmHg 50%
    13:00 +8°C° 0.1 mm 4 m/S 749 mmHg 49%
    14:00 +8°C° 0.1 mm 4 m/S 749 mmHg 47%
    15:00 +7°C° 0.2 mm 5 m/S 749 mmHg 52%
    16:00 +6°C° 0.2 mm 5 m/S 749 mmHg 56%
    17:00 +4°C° 0.2 mm 6 m/S 750 mmHg 61%
    18:00 +3°C° 0 mm 5 m/S 750 mmHg 62%
    19:00 +3°C° 0 mm 4 m/S 751 mmHg 64%
    20:00 +1°C° 0 mm 3 m/S 751 mmHg 65%
    21:00 +1°C° 0 mm 3 m/S 751 mmHg 65%
    22:00 +1°C° 0 mm 3 m/S 751 mmHg 65%
    23:00 0°C° 0 mm 3 m/S 751 mmHg 64%

    27 März, Mittwoch

    Zeit Temperatur Niederschläge Wind Luftdruck Luftfeuchtigkeit
    00:00 -1°C° 0 mm 4 m/S 751 mmHg 66%
    01:00 -1°C° 0 mm 4 m/S 752 mmHg 68%
    02:00 -2°C° 0 mm 4 m/S 752 mmHg 70%
    03:00 -2°C° 0 mm 4 m/S 752 mmHg 72%
    04:00 -2°C° 0 mm 4 m/S 752 mmHg 75%
    05:00 -2°C° 0 mm 3 m/S 753 mmHg 78%
    06:00 -2°C° 0 mm 4 m/S 753 mmHg 70%
    07:00 -2°C° 0 mm 4 m/S 754 mmHg 62%
    08:00 -2°C° 0 mm 4 m/S 754 mmHg 54%
    09:00 -1°C° 0 mm 4 m/S 755 mmHg 50%
    10:00 0°C° 0 mm 4 m/S 755 mmHg 46%
    11:00 +1°C° 0 mm 4 m/S 755 mmHg 42%
    12:00 +3°C° 0 mm 3 m/S 755 mmHg 41%
    13:00 +4°C° 0 mm 3 m/S 756 mmHg 40%
    14:00 +4°C° 0 mm 3 m/S 756 mmHg 39%
    15:00 +4°C° 0 mm 3 m/S 756 mmHg 41%
    16:00 +4°C° 0 mm 3 m/S 756 mmHg 43%
    17:00 +4°C° 0 mm 3 m/S 757 mmHg 44%
    18:00 +3°C° 0 mm 3 m/S 757 mmHg 50%
    19:00 +3°C° 0 mm 2 m/S 758 mmHg 55%
    20:00 +1°C° 0 mm 2 m/S 758 mmHg 60%
    21:00 +1°C° 0 mm 2 m/S 759 mmHg 61%
    22:00 -1°C° 0 mm 2 m/S 759 mmHg 62%
    23:00 -1°C° 0 mm 2 m/S 759 mmHg 63%
    Mehr zeigen